sat.trackr.live / text

‹ back to catalog

STARLINK-4477

NORAD 53546 · 2022-101V

PAYLOAD ACTIVE UNKNOWN

§ Identity

Operator
Country
US
Launch date
2022-08-19
Launch site
AFETR
Launch vehicle
Mass (kg)
RCS (m²)

Purposes: comms

External: N2YO · Heavens-Above · Gunter

§ Orbital elements

Epoch: 2026-05-25T03:28:55.844256Z

Period
95.44 min
Inclination
53.2126°
Eccentricity
0.0001301
Mean motion
15.08835516 rev/d
Perigee alt
538.9 km
Apogee alt
540.7 km
Semi-major
6,917.9 km
B*
3.4954e-6
RAAN
70.4262°
Arg perigee
61.7044°
Mean anomaly
298.4079°
Rev number
20,799

§ Raw data

STARLINK-44771 53546U 22101V   26145.14509079 -.00000232  00000+0  34954-5 0  99992 53546  53.2126  70.4262 0001301  61.7044 298.4079 15.08835516207990

JSON: /api/v1/satellites/53546 · /tle

For live sub-satellite position, see the globe view (requires WebGL).

§ Visibility from observer

Set your observer location to see the next 7 days of passes ≥ 10°. The values pass through the URL so the page stays shareable.

No JS? Fill the form by hand. The geolocation button needs JavaScript.